Location: Lecco
(45.8566°N, 9.3977°E)
Time: 13:15:01
(UTC+02:00)

Vanguard 2 Rocket - Pass Details

Date: 14 August 2020
Orbit: 554 x 3326 km, 32.9° (Epoch: 24 September)

Event Time Altitude Azimuth Distance (km) Brightness Sun altitude
Rises 19:01:45 0° 238° (WSW) 3,223 10.6 14.4°
Reaches altitude 10° 19:04:04 10° 226° (SW) 2,520 9.9 14.0°
Maximum altitude 19:09:14 30° 167° (SSE) 1,975 8.6 13.1°
Drops below altitude 10° 19:17:15 10° 112° (ESE) 4,004 9.6 11.7°
Sets 19:22:01 0° 103° (ESE) 5,516 10.2 10.9°
